Saginaw Browne, MI

3:01 AM EDT on August 21, 2017 (GMT -0400)
Saginaw County-Browne

Weather History for KHYX - September, 2014

Change the Weather History Date:

Tuesday, September 2, 2014

  Actual Average (KMBS) Record (KMBS)
Temperature  
Mean Temperature 69 °F -  
Max Temperature 78 °F 77 °F 91 °F (2011)
Min Temperature 60 °F 53 °F 46 °F (2003)
Cooling Degree Days 4    
Growing Degree Days 19 (Base 50)    
Moisture  
Dew Point 62 °F    
Average Humidity 77    
Maximum Humidity 100    
Minimum Humidity 39    
Precipitation  
Precipitation 0.00 in - - ()
Sea Level Pressure  
Sea Level Pressure 29.85 in    
Wind  
Wind Speed 6 mph (WSW)    
Max Wind Speed 14 mph    
Max Gust Speed 22 mph    
Visibility 10 miles    
Events      
Averages and records for this station are not official NWS values.
T = Trace of Precipitation, MM = Missing Value Source: NWS Daily Summary

Daily Weather History Graph

Daily Weather History Graph

Search for Another Location

Airport or City:

Trip Planner

Search our weather history database for the weather conditions in past years. The results will help you decide how hot, cold, wet, or windy it might be!

Date:

Astronomy

Sep. 02, 2014 Rise Set
Actual Time 7:00 AM EDT 8:08 PM EDT
Civil Twilight 6:31 AM EDT 8:38 PM EDT
Nautical Twilight 5:55 AM EDT 9:13 PM EDT
Astronomical Twilight 5:18 AM EDT 9:50 PM EDT
Moon 2:56 PM EDT (9/2) No Moon Set
Length of Visible Light 14h 07m
Length of Day
13h 08m
First Quarter, 52% of the Moon is Illuminated
Sep 2
First Quarter
Sep 8
Full
Sep 15
Last Quarter
Sep 24
New
Oct 1
First Quarter

Hourly Weather History & Observations

Time (EDT) Temp. Dew Point Humidity Pressure Visibility Wind Dir Wind Speed Gust Speed Precip Events Conditions
12:15 AM 69.8 °F 69.8 °F 100% 29.79 in 10.0 mi SW 5.8 mph - N/A   Clear
12:34 AM 69.8 °F 69.8 °F 100% 29.79 in 10.0 mi SW 5.8 mph - N/A   Clear
12:54 AM 69.8 °F 69.8 °F 100% 29.80 in 10.0 mi SW 5.8 mph - N/A   Clear
1:15 AM 69.8 °F 69.8 °F 100% 29.81 in 10.0 mi SW 5.8 mph - N/A   Scattered Clouds
1:34 AM 69.8 °F 69.8 °F 100% 29.81 in 10.0 mi SW 5.8 mph - N/A   Scattered Clouds
1:55 AM 69.8 °F 69.8 °F 100% 29.81 in 10.0 mi SW 5.8 mph - N/A   Scattered Clouds
2:15 AM 69.8 °F 69.8 °F 100% 29.80 in 10.0 mi SW 5.8 mph - N/A   Mostly Cloudy
2:34 AM 69.8 °F 69.8 °F 100% 29.81 in 10.0 mi SW 4.6 mph - N/A   Overcast
2:55 AM 69.8 °F 69.8 °F 100% 29.81 in 10.0 mi WSW 4.6 mph - N/A   Overcast
3:14 AM 69.8 °F 69.8 °F 100% 29.81 in 10.0 mi SW 5.8 mph - N/A   Overcast
3:34 AM 69.8 °F 69.8 °F 100% 29.81 in 10.0 mi SW 5.8 mph - N/A   Overcast
3:55 AM 69.8 °F 69.8 °F 100% 29.81 in 10.0 mi WSW 5.8 mph - N/A   Mostly Cloudy
4:14 AM 69.8 °F 69.8 °F 100% 29.81 in 10.0 mi SW 5.8 mph - N/A   Mostly Cloudy
4:34 AM 69.8 °F 69.8 °F 100% 29.81 in 10.0 mi WSW 6.9 mph - N/A   Scattered Clouds
4:55 AM 69.8 °F 69.8 °F 100% 29.81 in 10.0 mi WSW 5.8 mph - N/A   Clear
5:14 AM 69.8 °F 69.8 °F 100% 29.81 in 10.0 mi WSW 4.6 mph - N/A   Clear
5:34 AM 69.8 °F 69.8 °F 100% 29.83 in 10.0 mi WSW 5.8 mph - N/A   Scattered Clouds
5:55 AM 69.8 °F 69.8 °F 100% 29.83 in 10.0 mi WSW 5.8 mph - N/A   Scattered Clouds
6:14 AM 68.0 °F 68.0 °F 100% 29.83 in 10.0 mi WSW 5.8 mph - N/A   Clear
6:35 AM 68.0 °F 68.0 °F 100% 29.82 in 10.0 mi SW 5.8 mph - N/A   Clear
6:55 AM 68.0 °F 68.0 °F 100% 29.83 in 10.0 mi SW 5.8 mph - N/A   Clear
7:14 AM 68.0 °F 68.0 °F 100% 29.83 in 10.0 mi WSW 3.5 mph - N/A   Clear
7:35 AM 68.0 °F 68.0 °F 100% 29.84 in 10.0 mi West 4.6 mph - N/A   Clear
7:55 AM 68.0 °F 68.0 °F 100% 29.85 in 10.0 mi West 4.6 mph - N/A   Clear
8:14 AM 68.0 °F 68.0 °F 100% 29.85 in 10.0 mi West 4.6 mph - N/A   Clear
8:35 AM 68.0 °F 68.0 °F 100% 29.86 in 10.0 mi West 5.8 mph - N/A   Clear
8:55 AM 68.0 °F 68.0 °F 100% 29.86 in 10.0 mi WSW 4.6 mph - N/A   Clear
9:14 AM 69.8 °F 68.0 °F 94% 29.85 in 10.0 mi West 4.6 mph - N/A   Clear
9:35 AM 71.6 °F 66.2 °F 83% 29.85 in 10.0 mi West 3.5 mph - N/A   Clear
9:55 AM 71.6 °F 62.6 °F 73% 29.85 in 10.0 mi WNW 4.6 mph - N/A   Clear
10:14 AM 73.4 °F 62.6 °F 69% 29.86 in 10.0 mi West 5.8 mph - N/A   Clear
10:35 AM 73.4 °F 60.8 °F 65% 29.86 in 10.0 mi West 3.5 mph - N/A   Clear
10:55 AM 75.2 °F 60.8 °F 61% 29.86 in 10.0 mi WNW 4.6 mph - N/A   Clear
11:14 AM 75.2 °F 60.8 °F 61% 29.86 in 10.0 mi West 5.8 mph - N/A   Clear
11:35 AM 77.0 °F 59.0 °F 54% 29.86 in 10.0 mi WNW 6.9 mph - N/A   Clear
11:55 AM 77.0 °F 59.0 °F 54% 29.86 in 10.0 mi West 8.1 mph - N/A   Clear
12:14 PM 77.0 °F 59.0 °F 54% 29.86 in 10.0 mi WNW 9.2 mph - N/A   Scattered Clouds
12:35 PM 77.0 °F 57.2 °F 50% 29.86 in 10.0 mi West 10.4 mph - N/A   Scattered Clouds
12:55 PM 77.0 °F 55.4 °F 47% 29.85 in 10.0 mi West 8.1 mph - N/A   Scattered Clouds
1:14 PM 77.0 °F 59.0 °F 54% 29.84 in 10.0 mi West 8.1 mph - N/A   Clear
1:35 PM 75.2 °F 57.2 °F 53% 29.84 in 10.0 mi West 8.1 mph - N/A   Clear
1:55 PM 77.0 °F 59.0 °F 54% 29.85 in 10.0 mi WNW 11.5 mph - N/A   Clear
2:14 PM 77.0 °F 59.0 °F 54% 29.85 in 10.0 mi West 12.7 mph 17.3 mph N/A   Clear
2:35 PM 77.0 °F 59.0 °F 54% 29.84 in 10.0 mi West 9.2 mph - N/A   Scattered Clouds
2:54 PM 77.0 °F 57.2 °F 50% 29.85 in 10.0 mi West 9.2 mph 16.1 mph N/A   Scattered Clouds
3:14 PM 78.8 °F 55.4 °F 44% 29.85 in 10.0 mi WNW 8.1 mph - N/A   Scattered Clouds
3:35 PM 78.8 °F 53.6 °F 42% 29.85 in 10.0 mi West 10.4 mph - N/A   Scattered Clouds
3:54 PM 78.8 °F 51.8 °F 39% 29.85 in 10.0 mi WNW 11.5 mph 19.6 mph N/A   Clear
4:14 PM 78.8 °F 53.6 °F 42% 29.86 in 10.0 mi West 13.8 mph 21.9 mph N/A   Scattered Clouds
4:35 PM 78.8 °F 53.6 °F 42% 29.86 in 10.0 mi WNW 13.8 mph - N/A   Scattered Clouds
4:54 PM 78.8 °F 51.8 °F 39% 29.87 in 10.0 mi NW 9.2 mph - N/A   Scattered Clouds
5:14 PM 78.8 °F 51.8 °F 39% 29.87 in 10.0 mi West 9.2 mph - N/A   Clear
5:35 PM 78.8 °F 53.6 °F 42% 29.87 in 10.0 mi WNW 9.2 mph - N/A   Clear
5:54 PM 78.8 °F 53.6 °F 42% 29.87 in 10.0 mi West 6.9 mph - N/A   Clear
6:14 PM 78.8 °F 53.6 °F 42% 29.87 in 10.0 mi West 5.8 mph - N/A   Clear
6:54 PM 73.4 °F 57.2 °F 57% 29.87 in 10.0 mi NNW 3.5 mph - N/A   Scattered Clouds
7:15 PM 73.4 °F 57.2 °F 57% 29.87 in 10.0 mi NNW 5.8 mph - N/A   Clear
7:35 PM 71.6 °F 57.2 °F 60% 29.87 in 10.0 mi Calm Calm - N/A   Clear
7:54 PM 69.8 °F 57.2 °F 64% 29.88 in 10.0 mi Calm Calm - N/A   Clear
8:15 PM 69.8 °F 59.0 °F 68% 29.88 in 10.0 mi Calm Calm - N/A   Clear
8:35 PM 68.0 °F 59.0 °F 73% 29.89 in 5.0 mi Calm Calm - N/A   Haze
8:54 PM 68.0 °F 59.0 °F 73% 29.89 in 10.0 mi Calm Calm - N/A   Clear
9:15 PM 64.4 °F 59.0 °F 83% 29.90 in 10.0 mi Calm Calm - N/A   Clear
9:35 PM 64.4 °F 57.2 °F 77% 29.90 in 10.0 mi Calm Calm - N/A   Clear
9:54 PM 64.4 °F 57.2 °F 77% 29.90 in 10.0 mi Calm Calm - N/A   Clear
10:15 PM 60.8 °F 60.8 °F 100% 29.91 in 10.0 mi South 3.5 mph - N/A   Clear
10:35 PM 60.8 °F 60.8 °F 100% 29.92 in 10.0 mi South 3.5 mph - N/A   Clear
10:54 PM 60.8 °F 60.8 °F 100% 29.92 in 10.0 mi South 3.5 mph - N/A   Clear
11:15 PM 60.8 °F 60.8 °F 100% 29.92 in 10.0 mi South 3.5 mph - N/A   Clear
11:34 PM 60.8 °F 60.8 °F 100% 29.93 in 10.0 mi SSW 3.5 mph - N/A   Clear
11:54 PM 60.8 °F 59.0 °F 94% 29.93 in 10.0 mi SSW 4.6 mph - N/A   Clear